Location: Falconara Alta
(43.6167°N, 13.4000°E)
Time: 04:01:12
(UTC+00:00)

STARLINK-1217 - Pass Details

Date: 09 April 2020
Orbit: 378 x 381 km, 53.0° (Epoch: 02 June)

Event Time Altitude Azimuth Distance (km) Brightness Sun altitude
Rises 18:09:16 0° 308° (NW) 2,266 8.3 -5.4°
Reaches altitude 10° 18:11:34 10° 323° (NW) 1,409 6.6 -5.8°
Maximum altitude 18:14:13 24° 20° (NNE) 843 4.6 -6.3°
Drops below altitude 10° 18:16:51 10° 78° (ENE) 1,403 5.2 -6.7°
Enters shadow 18:17:26 - 83° (E) 1,608 5.4 -6.8°
